[Date Prev][Date Next][Thread Prev][Thread Next] - [Date Index][Thread Index][Author Index]
2 Line ISS Keps 7-4
- Subject: [sarex] 2 Line ISS Keps 7-4
- From: "Dave Larsen PhD" <doc@xxxxxxxxxxx>
- Date: Sun, 3 Jul 2005 20:24:34 -0700
ISS
1 25544U 98067A 05184.74718750 .00010242 00000-0 79650-4 0 8323
2 25544 051.6430 176.0197 0001514 298.6230 056.5724 15.72447989378286
----
Via the sarex mailing list at AMSAT.ORG courtesy of AMSAT-NA.
To unsubscribe, send "unsubscribe sarex" to Majordomo@amsat.org
AMSAT Home